Regional Weather Roundup
Issued by NWS

Home | Current Version | Previous Version | Graphics & Text | Print | Product List | Glossary On
Versions: 1 2 3 4 5 6 7 8 9 10 11 12 13 14 15 16 17 18 19 20 21 22 23 24 25 26 27 28 29 30 31 32 33 34 35 36 37 38 39 40 41 42 43 44 45 46 47 48 49 50
000
ASUS45 KSLC 031610
RWRUT

UTAH REGIONAL WEATHER ROUNDUP
NATIONAL WEATHER SERVICE SALT LAKE CITY UT
1000 AM MDT THU SEP 03 2015

UTZ001>011-023>025-031700-

NORTHERN UTAH

CITY           SKY/WX    TMP DP  RH WIND       PRES   REMARKS
BRIGHAM CITY   MOSUNNY   80  33  18 S24       29.90S
HILL AFB       MOSUNNY   79  41  26 S20G29    29.95S
LOGAN          SUNNY     82  37  20 S18       29.90S
OGDEN          PTSUNNY   80  40  23 S25G31    29.92R
PROVO AIRPORT  PTSUNNY   73  45  35 E7        30.00F
SALT LAKE CITY PTSUNNY   80  40  23 S22G33    29.92S
VERNAL         MOSUNNY   71  43  36 CALM      30.06S
WENDOVER       MOSUNNY   79  36  21 S18       29.89S
HEBER CITY     MOSUNNY   73  37  27 SW15G23   30.05S
WEST JORDAN    SUNNY     79  43  27 S22G29    29.96S

$$

UTZ012>022-026-027-031700-

SOUTHERN/CENTRAL UTAH

CITY           SKY/WX    TMP DP  RH WIND       PRES   REMARKS
BLANDING       SUNNY     71  50  47 S6        30.26S
BRYCE CANYON   CLOUDY    61  41  47 SE8       30.25S
CEDAR CITY     CLOUDY    68  40  35 S13       30.08S
DELTA          CLOUDY    75  37  25 S21       30.01S
HANKSVILLE     PTSUNNY   81  45  28 S10       30.05S
MILFORD        PTSUNNY   73  41  31 S14       30.03S
MOAB/CYNLANDS  SUNNY     78  48  34 E7        30.04R
PRICE          PTSUNNY   68  44  42 E7        30.11S
ST GEORGE      MOSUNNY   82  45  26 E10G17    29.96S
KANAB          CLOUDY    68  52  56 CALM      30.16R

$$

REGIONAL REPORTS     COLORADO/ARIZONA

CITY           SKY/WX    TMP DP  RH WIND       PRES   REMARKS
CRAIG, CO      PTSUNNY   72  49  44 NE6       30.14S
GRAND JUNCTION CLOUDY    70  52  52 SE24      30.10R
RIFLE          PTSUNNY   62  52  69 W3        30.14S
MONTROSE       CLOUDY    63  57  81 SE7       30.22R
CORTEZ         MOSUNNY   69  57  65 CALM      30.19F
PAGE, AZ       MOSUNNY   79  50  36 N6        30.06S
GRAND CANYON   MOSUNNY   69  40  34 SW14      30.22S
KINGMAN        SUNNY     83  38  20 E3        30.00S
FLAGSTAFF      MOSUNNY   66  41  40 SW14      30.27R

$$

REGIONAL REPORTS    NEVADA/IDAHO/WYOMING

CITY           SKY/WX    TMP DP  RH WIND       PRES   REMARKS
LAS VEGAS, NV  MOSUNNY   86  35  16 S10G17    29.84R
ELY            SUNNY     71  35  26 S22G29    30.03F
ELKO           SUNNY     67  34  29 SW6       29.95S
POCATELLO, ID  SUNNY     66  39  37 SW16      29.94S
BURLEY         MOSUNNY   60  42  51 W8        29.93R
EVANSTON, WY   PTSUNNY   70  35  27 SW21G26   30.10F
ROCK SPRINGS   PTSUNNY   69  38  32 W3        30.11S
KEMMERER       CLOUDY    64  34  32 SW13G18   30.12S

$$



USA.gov is the U.S. government's official web portal to all federal, state and local government web resources and services.